Location: Feydey
(46.3431°N, 7.0106°E)
Time: 07:36:40
(UTC+00:00)

deb Atmosphere 2 - Pass Details

Date: 04 February 2022
Orbit: 828 x 839 km, 98.6° (Epoch: 21 May)

Event Time Altitude Azimuth Distance (km) Brightness Sun altitude
Rises 17:01:06 0° 199° (SSW) 3,381 ? -4.1°
Reaches altitude 10° 17:03:51 10° 212° (SSW) 2,452 ? -4.6°
Maximum altitude 17:08:18 26° 267° (W) 1,618 ? -5.3°
Drops below altitude 10° 17:12:48 10° 322° (NW) 2,466 ? -6.0°
Sets 17:15:35 0° 336° (NNW) 3,405 ? -6.5°
